Mpanda Airport

Jump to: basic info | weather | comments

Related pages: nearby airports | nearby navaids | notams | map

Basic information (top)

Codes: HTMP
Location: lon -6.350000, lat 31.083000, elev 3,520 ft / 1,073 m msl
Status: small_airport

Weather (top)

Current conditions for Sumbawanga Airport 103nm (191km) SSE (rec'd 2015/03/31 06:00Z):

HTSU 310600Z 15004KT 9999 SCT017 BKN070 17/15 Q1024

Airport forecast for Julius Nyerere International Airport 485nm (899km) E (rec'd 2015/03/31 12:00Z):

TAF HTDA 311100Z 3112/0118 12010KT 9999 BKN028 FEW027CB 
      TEMPO 3112/3115 SHRA BKN020 FEW022B 
      BECMG 3121/3124 00000KT SCT023 FEW024CB 
      BECMG 0109/0112 12010KT SCT027 FEW28CB

Latest comments (top)

re: Uwanja wa ndege Mpanda: Thanks God Mpanda is on the right path, ... [read]

Uwanja wa ndege Mpanda: Uwanja ni mzuri saana, [read]

matengenezo: uwanja ukikamilika utakuwa mzuri.mmejitahidi. [read]

More... (top)

See also NOTAMs and nearby airports and navaids, or visit the Mpanda Airport page at the main OurAirports website..